Tracking 19794 objects as of 22-Jul-2019
HD Live streaming from Space Station
objects crossing your sky now

TELSTAR 302

Track TELSTAR 302 now!
TELSTAR 302 is classified as:


NORAD ID: 15237
Int'l Code: 1984-093D
Perigee: 35,914.0 km
Apogee: 35,947.2 km
Inclination: 15.2 °
Period: 1,443.1 minutes
Semi major axis: 42301 km
RCS: 4.6276 m2 (large)
Launch date: August 30, 1984
Source: United States (US)
Launch site: AIR FORCE EASTERN TEST RANGE (AFETR)
aabbcc
Your satellite tracking list
Your tracking list is empty




NASA's NSSDC Master Catalog

Two Line Element Set (TLE):
1 15237U 84093D   19202.79224807 -.00000351 +00000-0 +00000-0 0  9995
2 15237 015.2435 006.0924 0003927 055.6500 300.7950 00.99785536021282
Source of the keplerian elements: AFSPC